DW7921 Burien WA US current weather conditions

sailwx.info

Wind from 252

Air temperature 4.4° C
Dewpoint 3.6° C

Last reported at 2019-Dec-15 21:00 UTC.
Time now 2019-Dec-15 21:48 UTC

Location: N 47°29' W 122°20'.
View on Google Maps.

See reports from other nearby stations

  
Tides and Currents Weather Stations Pressure Air Temp Water Temp Dewpoint Dewpoint Depression Visibility Wind Speed Wind Dir Waves Ship Positions
date/time (UTC)wind fromknots sea level pressurealtimeterstation pressurevisibilityair tempwater tempwave heightnotes
2019-Dec-15 21:00 252 4.4
2019-Dec-15 20:45 253 5.0
2019-Dec-15 20:30 266 0 gusting 3 5.0
2019-Dec-15 20:16 269 0 gusting 3 5.0
2019-Dec-15 20:00 248 0 gusting 2 5.0
2019-Dec-15 19:45 273 5.0
2019-Dec-15 19:30 127 5.0
2019-Dec-15 19:15 303 5.0
2019-Dec-15 19:00 281 5.0
2019-Dec-15 18:45 251 5.0
2019-Dec-15 18:30 167 4.4
2019-Dec-15 18:15 127 3.9
2019-Dec-15 18:00 043 3.3
2019-Dec-15 17:45 005 3.3
2019-Dec-15 17:32 341 3.3
2019-Dec-15 17:17 342 3.3
2019-Dec-15 17:02 280 3.3
2019-Dec-15 16:47 276 3.3
2019-Dec-15 16:31 082 3.3
2019-Dec-15 16:18 117 3.3
2019-Dec-15 16:01 117 3.3
2019-Dec-15 15:47 117 3.3
2019-Dec-15 15:31 117 3.3
2019-Dec-15 15:16 119 3.3
2019-Dec-15 15:01 119 2.8
2019-Dec-15 14:46 139 2.8
2019-Dec-15 14:31 139 2.8
2019-Dec-15 14:15 139 3.3
2019-Dec-15 14:01 139 3.3
2019-Dec-15 13:46 135 2.8
2019-Dec-15 13:31 136 2.8
2019-Dec-15 13:16 139 2.8
2019-Dec-15 13:01 139 2.8
2019-Dec-15 12:47 139 2.8
2019-Dec-15 12:31 139 2.8
2019-Dec-15 12:15 139 2.8
2019-Dec-15 12:00 139 2.8
2019-Dec-15 11:46 139 3.3
2019-Dec-15 11:31 139 3.3
2019-Dec-15 11:15 139 3.3
2019-Dec-15 11:01 049 3.3
2019-Dec-15 10:45 040 3.3
2019-Dec-15 10:30 113 3.3
2019-Dec-15 10:15 058 1 gusting 3 3.3
2019-Dec-15 10:01 053 0 gusting 1 3.9
2019-Dec-15 09:45 285 3.9
2019-Dec-15 09:30 090 3.9
2019-Dec-15 09:15 136 3.3
2019-Dec-15 09:00 136 3.9
2019-Dec-15 08:49 135 3.9
2019-Dec-15 08:32 135 3.9
2019-Dec-15 08:17 136 3.9
2019-Dec-15 08:01 135 3.9
2019-Dec-15 07:47 135 4.4
2019-Dec-15 07:33 135 4.4
2019-Dec-15 07:16 047 4.4
2019-Dec-15 07:01 046 4.4
2019-Dec-15 06:47 046 3.9
2019-Dec-15 06:32 046 3.9
2019-Dec-15 06:17 046 3.9
2019-Dec-15 06:03 047 4.4
2019-Dec-15 05:46 046 4.4
2019-Dec-15 05:33 046 4.4
2019-Dec-15 05:17 047 4.4
2019-Dec-15 05:01 043 3.9
2019-Dec-15 04:46 043 3.9
2019-Dec-15 04:31 043 3.9
2019-Dec-15 04:17 043 3.9
2019-Dec-15 04:02 043 3.9
2019-Dec-15 03:47 043 3.9
2019-Dec-15 03:33 043 4.4
2019-Dec-15 03:16 043 4.4
2019-Dec-15 03:01 025 5.0
2019-Dec-15 02:46 063 5.0
2019-Dec-15 02:31 081 5.0
2019-Dec-15 02:17 094 5.0
2019-Dec-15 02:03 094 5.0
2019-Dec-15 01:46 094 5.0
2019-Dec-15 01:31 134 4.4
2019-Dec-15 01:17 134 4.4
2019-Dec-15 01:01 134 4.4
2019-Dec-15 00:46 134 5.0
2019-Dec-15 00:30 134 5.0
2019-Dec-15 00:16 134 5.0
2019-Dec-15 00:01 134 5.0
2019-Dec-14 23:45 136 5.0
2019-Dec-14 23:31 145 5.0
2019-Dec-14 23:15 231 5.6
2019-Dec-14 23:01 226 5.6
2019-Dec-14 22:46 238 5.6
2019-Dec-14 22:30 148 5.6
2019-Dec-14 22:15 288 5.0
2019-Dec-14 22:01 287 5.0
2019-Dec-14 21:46 276 5.0
2019-Dec-14 21:30 245 5.0
2019-Dec-14 21:01 240 0 gusting 2 5.0
2019-Dec-14 20:45 122 5.0
2019-Dec-14 20:31 257 5.0
2019-Dec-14 20:16 234 5.0
2019-Dec-14 20:01 140 5.0
2019-Dec-14 19:45 108 5.0
2019-Dec-14 19:30 235 5.0
2019-Dec-14 19:15 271 5.0
2019-Dec-14 19:00 283 5.6
2019-Dec-14 18:45 156 5.6
2019-Dec-14 18:30 269 5.0
2019-Dec-14 18:15 197 5.0
2019-Dec-14 18:00 110 5.0
2019-Dec-14 17:46 214 5.0
2019-Dec-14 17:30 173 5.0
2019-Dec-14 17:15 278 5.0
2019-Dec-14 17:00 250 5.0
2019-Dec-14 16:45 256 5.0
2019-Dec-14 16:30 287 0 gusting 2 5.0
2019-Dec-14 16:17 248 5.0
2019-Dec-14 16:02 284 5.0
2019-Dec-14 15:48 145 5.0
2019-Dec-14 15:32 195 5.0
2019-Dec-14 15:18 289 5.0
2019-Dec-14 15:02 168 5.0
2019-Dec-14 14:49 193 5.0
2019-Dec-14 14:32 141 5.0
2019-Dec-14 14:18 248 5.0
2019-Dec-14 14:03 249 5.6
2019-Dec-14 13:47 250 5.6
2019-Dec-14 13:32 277 5.6
2019-Dec-14 13:16 276 5.6
2019-Dec-14 13:02 272 5.6
2019-Dec-14 12:48 277 0 gusting 1 5.6
2019-Dec-14 12:32 296 5.6
2019-Dec-14 12:17 297 5.6
2019-Dec-14 12:01 290 0 gusting 1 5.6
2019-Dec-14 11:46 276 5.6
2019-Dec-14 11:31 280 5.6
2019-Dec-14 11:16 287 5.6
2019-Dec-14 11:02 287 5.6
2019-Dec-14 10:46 293 0 gusting 2 5.6
2019-Dec-14 10:31 255 0 gusting 2 5.6
2019-Dec-14 10:16 273 5.6
2019-Dec-14 10:01 255 0 gusting 2 5.6
2019-Dec-14 09:46 291 5.6
2019-Dec-14 09:31 238 5.6
2019-Dec-14 09:01 242 0 gusting 2 5.6
2019-Dec-14 08:45 280 0 gusting 3 6.1
2019-Dec-14 08:31 273 6.1
2019-Dec-14 08:16 250 6.1
2019-Dec-14 08:01 266 6.1
2019-Dec-14 07:46 256 1 gusting 3 6.1
2019-Dec-14 07:30 281 0 gusting 3 6.1
2019-Dec-14 07:15 252 6.1
2019-Dec-14 07:00 285 0 gusting 3 6.1
2019-Dec-14 06:45 246 6.1
2019-Dec-14 06:30 285 6.1
2019-Dec-14 06:15 278 6.1
2019-Dec-14 06:00 269 6.7
2019-Dec-14 05:45 296 6.7
2019-Dec-14 05:30 270 6.7
2019-Dec-14 05:15 290 6.7
2019-Dec-14 05:00 280 6.7
2019-Dec-14 04:45 280 6.7
2019-Dec-14 04:31 305 0 gusting 3 7.2
2019-Dec-14 04:15 273 7.2
2019-Dec-14 04:00 270 7.2
2019-Dec-14 03:45 269 7.2
2019-Dec-14 03:30 269 7.2
2019-Dec-14 03:15 272 7.2
2019-Dec-14 03:00 279 7.2
2019-Dec-14 02:45 277 7.2
2019-Dec-14 02:30 269 7.2
2019-Dec-14 02:15 294 0 gusting 2 7.2
2019-Dec-14 02:00 283 7.2
2019-Dec-14 01:45 267 7.2
2019-Dec-14 01:33 293 0 gusting 3 7.8
2019-Dec-14 01:18 259 0 gusting 3 7.8
2019-Dec-14 01:02 262 7.8
2019-Dec-14 00:47 282 7.8
2019-Dec-14 00:33 257 7.8
2019-Dec-14 00:17 258 7.8
2019-Dec-14 00:02 276 7.8
2019-Dec-13 23:47 262 7.8
2019-Dec-13 23:32 284 1 gusting 5 8.3
2019-Dec-13 23:17 276 0 gusting 6 8.3
2019-Dec-13 23:01 277 2 gusting 5 8.3
2019-Dec-13 22:47 264 1 gusting 6 8.3
2019-Dec-13 22:32 273 2 gusting 5 8.9
2019-Dec-13 22:16 293 2 gusting 6 8.9
2019-Dec-13 22:02 283 6 gusting 9 8.3
2019-Dec-13 21:46 304 1 gusting 6 8.3
2019-Dec-13 21:32 260 0 gusting 6 8.3
2019-Dec-13 21:17 276 0 gusting 5 8.3
2019-Dec-13 21:01 270 0 gusting 4 8.3